Globalstar M084

operational
NORAD ID: 38040 Int'l Des: 2011-080 Owner: GLOBL Country: US Constellation: globalstar
LEOCIRCULAR

About Globalstar M084

Description loading...

Live Position

Loading 3D Globe...

Upcoming Passes

Altitude History

Altitude vs Time

uPlot chart will show altitude changes over time

Two-Line Element Set

1 38040U 11080A 25299.19252395 -.00000089 00000-0 82948-4 0 9991
2 38040 52.0038 9.6458 0000274 80.4991 306.1908 12.62264480639214
Epoch: Oct 26, 2025 • Age: 4 hours

Current Status

Altitude 1416.7 km
Velocity 7.16 km/s
Sub-Earth Point 38.71°N, 115.64°W
Launch Date Dec 28, 2011
Age 13.8 years
Type communications

Technical Details

Classification Payload
Mass 715.00 kg
Dry Mass 500.00 kg
Total Mass 715.00 kg
Length 4.00 m
Diameter 2.00 m
Span 12.00 m
Shape Trap Cyl + 2 Pan
Manufacturer THALR
Bus Type Prisma
Phase Status In Orbit
Owner/State GLOBL/US

Large Constellations

Loading constellations...